Regional Weather Roundup
Issued by NWS Raleigh/Durham, NC

Home | Current Version | Previous Version | Text Only | Print | Product List | Glossary On
Versions: 1 2 3 4 5 6 7 8 9 10 11 12 13 14 15 16 17 18 19 20 21 22 23 24 25 26 27
000
ASUS42 KRAH 232010
RWRRAH
NORTH CAROLINA WEATHER ROUNDUP
NATIONAL WEATHER SERVICE RALEIGH NC
400 PM EDT TUE MAY 23 2017

NOTE: "FAIR" INDICATES FEW OR NO CLOUDS BELOW 12,000 FEET WITH NO
SIGNIFICANT WEATHER AND/OR OBSTRUCTIONS TO VISIBILITY.

NCZ001-053-055-056-065-067-232100-
WESTERN NORTH CAROLINA

CITY           SKY/WX    TMP DP  RH WIND       PRES   REMARKS
ASHEVILLE      CLOUDY    66  60  81 S8        29.75S
JEFFERSON      RAIN      58  57  99 CALM      29.81S
HICKORY        LGT RAIN  64  64 100 MISG      29.74
RUTHERFORDTON  CLOUDY    68  68 100 S7        29.74F
MOUNT AIRY     LGT RAIN  62  57  86 E10       29.79F
BOONE          RAIN      57  57 100 E3        29.81F
$$

NCZ021-022-025-041-071-084-088-232100-
CENTRAL NORTH CAROLINA

CITY           SKY/WX    TMP DP  RH WIND       PRES   REMARKS
CHARLOTTE      CLOUDY    70  66  87 SE5       29.74F
GREENSBORO     LGT RAIN  62  62 100 NE14      29.75F FOG
WINSTON-SALEM  LGT RAIN  62  59  90 NE10      29.76F FOG
RALEIGH-DURHAM RAIN      68  68 100 CALM      29.73F FOG
FORT BRAGG     NOT AVBL
FAYETTEVILLE   HVY RAIN  74  72  93 E9        29.69F FOG
BURLINGTON     RAIN      63  62  97 NE8       29.74F FOG
LAURINBURG     CLOUDY    75  72  90 W17       29.72S
$$

NCZ011-015-027-028-043-044-047-080-103-232100-
NORTHEASTERN NORTH CAROLINA

CITY           SKY/WX    TMP DP  RH WIND       PRES   REMARKS
ROCKY MT-WILSO LGT RAIN  68  68 100 NE7       29.73F
GREENVILLE     LGT RAIN  72  70  94 NE5       29.75F
WASHINGTON     CLOUDY    73  70  91 NE5       29.72F
ELIZABETH CITY CLOUDY    68  68 100 E15       29.75F
MANTEO         RAIN      70  69  99 E8        29.75F
CAPE HATTERAS  CLOUDY    76  71  85 SW16G22   29.75F
$$

NCZ078-087-090-091-093-098-101-232100-
SOUTHEASTERN NORTH CAROLINA

CITY           SKY/WX    TMP DP  RH WIND       PRES   REMARKS
LUMBERTON      LGT RAIN  76  71  85 SW17      29.70F
GOLDSBORO      NOT AVBL
KINSTON        RAIN      72  70  94 NE5       29.72F
KENANSVILLE    CLOUDY    73  72  94 W5        29.72S
NEW BERN       LGT RAIN  75  72  90 S9G20     29.72F FOG
CHERRY POINT   LGT RAIN  77  72  84 S9        29.73F
BEAUFORT       LGT RAIN  78  75  90 SW14      29.74F
JACKSONVILLE   MOSUNNY   76  73  91 S8        29.71F
WILMINGTON     PTSUNNY   78  69  73 S15       29.73F
$$





USA.gov is the U.S. government's official web portal to all federal, state and local government web resources and services.